{"data":{"norad_id":56722,"intl_designator":"2023-068N","name":"ONEWEB-0694","alt_names":[],"object_type":"PAYLOAD","status":"ACTIVE","operator":null,"country":"UK","launch_date":"2023-05-20","launch_site_code":"AFWTR","launch_vehicle":null,"mission":null,"orbit_class":"UNKNOWN","rcs_meters":null,"size_class":null,"mass_kg":null,"dimensions":null,"purposes":["comms"],"wikipedia_slug":null,"has_3d_model":false,"image_url":null,"decayed_at":null,"tle_current":{"epoch":"2026-05-25T04:24:01.185120Z","epoch_age_seconds":55732,"freshness":"FRESH","line1":"1 56722U 23068N   26145.18334705  .00000023  00000+0  27057-4 0  9999","line2":"2 56722  87.9117 233.3223 0002262 111.1166 249.0207 13.16593942148745","mean_motion":13.16593942,"eccentricity":0.0002262,"inclination_deg":87.9117,"raan_deg":233.3223,"arg_perigee_deg":111.1166,"mean_anomaly_deg":249.0207,"bstar":2.7057e-5,"rev_number":14874,"period_min":109.37312971473,"perigee_km":1196.0442080468,"apogee_km":1199.4715428885,"semimajor_km":7575.8948754677,"source":"CELESTRAK","updated_at":"2026-05-25T13:38:22.746311Z"}}}